{"data":{"norad_id":68183,"epoch":"2026-05-24T15:25:36.183360Z","epoch_age_seconds":99694,"freshness":"FRESH","line1":"1 68183U 26050S   26144.64277990  .00010673  00000+0  28351-3 0  9998","line2":"2 68183  53.1567 273.8381 0001588  83.9731 276.1455 15.38839895 12316","mean_motion":15.38839895,"eccentricity":0.0001588,"inclination_deg":53.1567,"raan_deg":273.8381,"arg_perigee_deg":83.9731,"mean_anomaly_deg":276.1455,"bstar":0.00028351,"rev_number":1231,"period_min":93.576986447963,"perigee_km":448.45444044233,"apogee_km":450.62291023682,"semimajor_km":6827.6756753396,"source":"CELESTRAK","updated_at":"2026-05-25T13:38:21.855862Z"}}